CAPE
2 2 1 1 1 0 0 0 0 0 0 0 0 0 0 0 0 0 0 0 0 0 0 0 0 0 0 0 0 0 0 0 0 0 0 0 0 0 0 0 0 0 0 0 0
3 3 4 2 1 1 0 1 1 0 0 0 0 0 0 0 0 0 0 0 0 0 0 0 0 0 0 0 0 0 0 0 0 0 0 0 0 0 0 0 0 0 0 0 0
1 1 1 6 5 4 3 2 2 0 0 0 0 0 0 0 0 0 0 0 0 0 0 0 0 0 0 0 0 0 0 0 0 0 0 0 0 0 0 0 0 0 0 0 0
8 5 2 1 1 0 1 2 4 3 1 1 1 0 0 0 0 0 0 0 0 0 0 0 0 0 0 0 0 0 0 0 0 0 0 0 0 0 0 0 0 0 0 0 0
5 4 3 4 2 1 0 0 0 0 1 5 4 5 0 0 0 0 0 0 0 0 0 0 0 0 0 0 0 0 0 0 0 0 0 0 0 0 0 0 0 0 0 0 0
3 1 0 0 0 0 0 1 1 1 0 0 6 2 1 0 0 0 0 0 0 0 0 0 0 0 0 0 0 0 0 0 0 0 0 0 0 0 0 0 0 0 0 0 0
2 0 0 0 0 0 0 0 0 1 1 2 2 0 0 0 0 0 0 0 0 0 0 0 0 0 0 0 0 0 0 0 0 0 0 0 0 0 0 0 0 0 0 0 0
1 0 0 0 0 0 0 0 0 0 1 3 3 5 0 0 0 0 0 0 0 0 0 0 0 0 0 0 0 0 0 0 0 0 0 0 0 0 0 0 0 0 0 0 0
2 0 1 5 3 1 0 0 0 0 0 0 0 0 0 0 0 0 0 0 0 0 0 0 0 0 0 0 0 0 0 0 0 0 0 0 0 0 0 0 0 0 0 0 0
1 0 5 5 2 0 0 0 0 0 0 0 0 0 0 0 0 0 0 0 0 0 0 0 0 0 0 0 0 0 0 0 0 0 0 0 0 0 0 0 0 0 0 0 0
0 0 1 0 0 0 0 0 0 0 0 0 0 0 0 0 0 0 0 0 0 0 0 0 0 0 0 0 0 0 0 0 0 0 0 0 0 0 0 0 0 0 0 0 0
0 0 0 0 0 0 0 0 0 0 0 0 0 0 0 0 0 0 0 0 0 0 0 0 0 0 0 0 0 0 0 0 0 0 0 0 0 0 0 0 0 0 0 0 0
0 0 0 0 0 0 0 0 0 0 0 0 0 4 0 0 0 0 0 0 0 0 0 0 0 0 0 0 0 0 0 0 0 0 0 0 0 0 0 0 0 0 0 0 0
0 0 0 0 0 0 0 0 0 0 0 0 0 0 0 0 0 0 0 0 0 0 0 0 0 0 0 0 0 0 0 0 0 0 0 0 0 0 0 0 0 0 0 0 0
0 1 0 0 0 0 0 0 0 0 0 0 0 0 0 0 0 18 5 0 0 0 0 0 0 0 0 0 0 0 0 0 0 0 0 0 0 0 0 0 0 0 0 0 0
0 0 1 0 0 0 0 0 0 0 0 0 0 0 0 0 0 5 18 21 9 7 0 0 0 0 0 0 0 0 0 0 0 0 0 0 0 0 0 0 0 0 0 0 0
0 0 0 0 0 0 0 0 0 0 1 0 7 2 0 0 0 0 2 0 0 0 0 0 0 0 0 0 0 0 0 0 0 0 0 0 0 0 0 0 0 0 0 0 0
0 0 0 0 0 0 0 0 0 0 0 6 0 7 8 0 0 0 0 18 16 3 6 1 0 18 6 0 0 0 0 0 0 0 0 0 0 0 0 0 0 0 0 0 0
0 0 0 0 0 0 0 0 0 0 5 0 0 1 1 0 0 0 0 8 32 9 0 0 0 0 0 0 0 0 0 0 0 0 0 0 0 0 0 0 0 0 0 0 0
0 0 0 0 0 0 0 0 0 12 0 2 1 13 0 0 0 0 0 0 0 11 1 0 0 0 0 0 0 0 0 0 0 0 0 0 0 0 0 0 0 0 0 0 0
0 0 0 0 0 0 0 0 0 0 0 0 6 0 0 0 0 0 0 0 0 0 0 0 0 0 0 0 0 0 0 0 0 0 0 0 0 0 0 0 0 0 0 0 36
0 0 0 0 0 1 0 0 3 0 0 6 0 0 1 0 0 0 4 4 0 0 0 0 2 0 0 0 0 0 0 0 0 0 0 0 0 0 0 0 0 0 0 25 191
0 0 0 0 0 0 0 0 2 0 0 0 0 0 0 0 0 0 0 0 3 1 2 1 0 0 0 0 1 2 24 0 0 0 0 0 0 0 0 0 0 0 42 237 313
0 0 0 0 0 0 1 0 0 0 0 0 0 0 0 0 0 0 0 0 1 5 19 31 0 0 0 0 0 0 0 0 0 0 0 0 0 0 0 0 0 0 132 292 305
0 0 0 0 0 0 0 0 0 6 0 0 0 0 0 1 0 0 0 0 0 0 1 1 0 0 0 0 0 0 0 0 0 0 0 0 0 0 0 0 0 0 110 341 322
0 0 0 0 0 0 0 3 1 8 12 0 0 0 0 0 0 1 2 0 3 0 0 3 0 0 0 0 2 0 0 0 0 0 0 0 0 0 0 2 0 1 206 325 371
0 2 3 1 3 0 0 0 3 7 0 1 1 0 0 0 0 0 0 0 0 0 0 0 0 0 0 0 28 0 0 0 0 0 0 0 0 0 1 150 214 226 304 369 430
CIN
-0 -0 0 -0 -0 -0 0 -0 0 0 0 0 0 0 0 0 0 0 0 0 0 0 0 0 0 0 0 0 0 0 0 0 0 0 0 0 0 0 0 0 0 0 0 0 0
-0 -0 -0 0 -0 0 -0 0 0 0 0 0 0 0 0 0 0 0 0 0 0 0 0 0 0 0 0 0 0 0 0 0 0 0 0 0 0 0 0 0 0 0 0 0 0
-1 -0 -0 -0 0 0 -0 -0 -0 0 0 0 0 0 0 0 0 0 0 0 0 0 0 0 0 0 0 0 0 0 0 0 0 0 0 0 0 0 0 0 0 0 0 0 0
-0 -0 -0 -0 -0 -0 0 -0 -0 0 -0 -0 -0 0 0 0 0 0 0 0 0 0 0 0 0 0 0 0 0 0 0 0 0 0 0 0 0 0 0 0 0 0 0 0 0
-0 -0 -0 0 0 0 0 0 0 0 -0 0 0 0 0 0 0 0 0 0 0 0 0 0 0 0 0 0 0 0 0 0 0 0 0 0 0 0 0 0 0 0 0 0 0
-0 -0 -0 0 0 0 -0 0 0 0 0 0 -0 -2 -0 0 0 0 0 0 0 0 0 0 0 0 0 0 0 0 0 0 0 0 0 0 0 0 0 0 0 0 0 0 0
0 0 0 0 0 0 0 0 0 0 0 0 0 -2 0 0 0 0 0 0 0 0 0 0 0 0 0 0 0 0 0 0 0 0 0 0 0 0 0 0 0 0 0 0 0
-0 0 0 0 0 0 0 0 0 0 0 -0 -0 -2 0 0 0 0 0 0 0 0 0 0 0 0 0 0 0 0 0 0 0 0 0 0 0 0 0 0 0 0 0 0 0
0 0 -0 -0 -0 -0 0 0 0 0 0 0 0 -0 0 0 0 0 0 0 0 0 0 0 0 0 0 0 0 0 0 0 0 0 0 0 0 0 0 0 0 0 0 0 0
0 -0 0 0 0 0 0 0 0 0 0 0 0 -14 0 0 0 0 0 0 0 0 0 0 0 0 0 0 0 0 0 0 0 0 0 0 0 0 0 0 0 0 0 0 0
0 0 0 0 0 0 0 0 0 0 0 0 0 0 0 0 0 0 0 0 0 0 0 0 0 0 0 0 0 0 0 0 0 0 0 0 0 0 0 0 0 0 0 0 0
0 0 0 0 0 0 0 0 0 0 0 0 0 0 0 0 0 0 0 0 0 0 0 0 0 0 0 0 0 0 0 0 0 0 0 0 0 0 0 0 0 0 0 0 0
0 0 0 0 0 0 0 0 0 0 0 0 0 -27 0 0 0 0 0 0 0 0 0 0 0 0 0 0 0 0 0 0 0 0 0 0 0 0 0 0 0 0 0 0 0
-0 0 0 0 0 0 0 0 0 0 0 0 0 0 0 0 0 0 0 0 0 0 0 0 0 0 0 0 0 0 0 0 0 0 0 0 0 0 0 0 0 0 0 0 0
0 0 0 0 0 0 0 0 0 0 0 0 0 -9 -2 0 -0 -17 -29 0 0 0 0 0 0 0 0 0 0 0 0 0 0 0 0 0 0 0 0 0 0 0 0 0 0
0 0 0 0 0 0 0 0 0 0 0 0 0 0 0 -7 0 -1 -5 -12 -20 -2 0 0 0 0 0 0 0 0 0 0 0 0 0 0 0 0 0 0 0 0 0 0 0
0 0 0 0 0 0 0 0 0 0 -3 0 -1 -7 0 0 0 0 -3 0 0 -2 0 -5 0 0 0 0 0 0 0 0 0 0 0 0 0 0 0 0 0 0 0 0 0
0 0 0 0 0 0 0 0 0 0 0 -27 0 -17 -17 0 0 -31 0 -27 -15 -18 -11 -2 0 -2 -9 0 0 0 0 0 0 0 0 0 0 0 0 0 0 0 0 0 0
0 0 0 0 0 0 0 0 0 -1 -24 0 -2 -23 -45 0 0 0 0 -52 -29 -31 0 0 0 0 0 0 0 0 0 0 0 0 0 0 0 0 0 0 0 0 0 0 0
0 0 0 0 0 0 0 0 0 -15 0 -19 -5 -6 0 0 0 0 0 0 0 -30 -11 0 0 0 0 0 0 0 0 0 0 0 0 0 0 0 0 0 0 0 0 0 0
0 0 0 0 0 0 0 0 0 0 0 0 -15 -2 0 0 -10 0 0 -5 0 -5 0 0 0 0 0 0 0 0 0 0 0 0 0 0 0 0 0 0 0 0 0 0 -322
0 0 0 0 -4 -12 0 -0 -6 0 0 -24 0 0 -21 0 0 -12 -15 -3 0 0 0 -0 -10 0 0 0 0 0 0 0 0 0 0 0 0 0 0 0 0 0 0 -304 -268
0 0 0 0 0 0 0 -0 -6 -0 0 0 0 -1 0 0 -0 0 0 0 -16 -6 -10 -3 0 0 0 0 -11 -14 -42 0 0 0 0 0 0 0 0 0 0 0 -201 -267 -323
0 0 0 0 0 0 -0 -0 0 0 0 0 0 0 0 0 0 0 0 0 -6 -8 -10 -6 0 0 0 0 0 0 0 0 0 0 0 0 0 0 0 0 0 0 -210 -247 -271
0 0 0 0 0 0 0 0 0 -0 0 0 0 0 0 -0 0 0 0 0 0 0 -7 -9 0 0 0 0 0 0 0 0 0 0 0 0 0 0 0 0 0 0 -216 -248 -293
0 -0 -0 0 -0 0 0 -1 -2 -0 -1 0 0 0 0 0 -10 -3 -5 -1 -2 -1 0 -0 0 0 0 0 -115 0 0 0 0 0 0 0 0 0 0 -3 0 -17 -198 -223 -269
0 -3 -3 -1 -1 -0 0 0 -6 -4 0 -8 -1 0 0 0 0 0 0 0 0 -0 0 -1 -2 0 0 -4 -67 -0 0 0 0 0 0 0 0 0 -73 -173 -150 -193 -174 -227 -308
Wind_Speed
29 30 31 31 32 32 33 34 34 35 35 35 36 37 38 40 42 37 43 33 27 36 26 23 21 20 20 22 20 19 29 31 26 23 21 25 25 25 23 20 20 15 15 15 7
29 30 31 32 33 33 34 34 35 35 36 36 37 37 39 41 41 47 42 35 32 28 29 33 29 23 25 24 23 26 30 32 26 27 31 32 38 33 30 28 26 22 20 23 9
30 31 32 33 33 34 35 35 36 36 36 37 37 38 38 39 40 40 29 30 33 32 31 28 35 29 32 27 26 28 35 33 36 33 34 38 40 38 36 40 26 26 26 30 23
31 32 32 33 33 34 35 36 36 37 37 37 37 38 39 31 39 24 24 25 30 32 32 31 29 35 38 40 35 40 37 37 46 41 39 40 42 43 41 40 38 34 41 33 29
33 33 34 35 35 36 36 37 37 37 38 38 37 36 32 35 39 37 38 36 34 26 33 32 35 34 42 40 38 47 41 38 40 44 41 40 44 47 47 41 45 34 32 32 31
33 34 35 36 37 38 38 38 38 38 38 37 36 33 33 47 31 35 40 37 32 29 26 33 34 33 38 42 41 34 39 47 45 43 41 42 48 43 44 33 43 42 35 32 32
33 34 36 38 39 40 42 42 42 39 38 37 34 32 38 45 32 36 35 38 38 35 32 31 32 30 35 42 42 43 52 50 48 41 40 36 53 45 25 38 40 42 46 48 46
35 37 39 40 42 42 43 45 45 42 37 33 30 32 43 39 39 42 41 39 34 33 32 31 26 34 38 36 40 43 46 59 55 42 40 32 68 42 36 34 43 45 50 52 54
37 39 41 42 42 43 44 44 44 41 32 27 28 30 45 31 27 30 30 35 31 32 29 29 28 33 31 37 43 45 59 57 56 39 38 33 71 53 45 41 46 48 52 54 54
39 41 42 39 39 41 40 39 36 30 27 25 26 34 29 31 27 30 22 22 30 29 32 32 33 37 36 37 50 43 45 51 55 41 40 46 70 57 51 49 50 54 54 45 23
41 42 42 41 40 38 35 36 42 34 40 36 46 49 46 48 45 35 25 23 25 28 37 32 40 47 40 38 40 40 45 44 36 36 41 46 49 53 46 41 41 48 44 31 21
42 44 44 41 37 34 28 35 36 34 46 37 39 42 47 51 52 48 35 29 28 33 28 34 47 43 40 38 43 46 48 49 42 38 36 40 48 53 52 47 36 34 30 25 36
43 43 40 40 35 28 29 31 31 30 25 31 34 32 37 30 43 45 38 34 35 35 34 39 35 38 45 43 45 46 47 47 45 43 50 44 48 46 46 42 40 38 23 31 33
42 41 37 40 27 30 27 29 28 24 24 28 32 30 34 20 23 32 39 37 33 39 37 41 40 43 39 46 42 53 40 42 45 42 51 38 62 53 49 51 49 25 34 41 45
41 38 34 30 25 29 25 26 25 19 30 34 28 22 12 26 25 20 27 30 39 36 32 42 30 32 42 42 37 50 40 38 38 38 43 43 41 60 34 47 28 46 42 46 28
40 35 32 24 23 22 23 25 21 22 25 28 33 35 27 24 16 21 18 16 21 34 41 39 35 37 38 37 35 33 37 40 40 37 47 37 30 54 43 43 43 39 37 28 35
45 31 23 18 23 23 25 23 21 23 24 34 32 32 23 26 20 19 13 18 21 27 32 33 37 38 37 41 39 36 35 36 39 41 45 26 29 32 18 21 27 33 33 24 22
41 27 19 16 15 21 25 24 21 23 22 27 32 30 25 27 23 24 21 17 15 21 27 32 33 28 25 29 34 37 35 37 42 39 41 34 35 44 44 47 44 43 39 25 13
31 25 19 18 16 22 28 26 17 20 16 14 30 27 26 25 23 24 23 20 19 19 27 28 32 27 30 33 29 34 44 36 41 43 34 37 49 56 47 44 45 46 37 22 14
25 24 21 18 21 24 27 23 14 12 7 10 25 25 26 25 23 25 21 18 23 22 20 25 35 30 28 29 33 35 33 38 39 44 45 40 42 39 30 36 35 36 34 15 6
24 23 21 20 23 26 28 21 14 11 6 11 27 24 25 25 25 26 22 24 22 26 26 29 31 31 32 29 33 34 40 36 34 39 45 46 47 31 39 35 35 35 14 4 6
24 24 19 21 26 26 26 21 9 10 12 16 13 26 25 26 26 22 21 21 25 24 27 25 28 38 39 40 39 37 39 36 42 46 42 48 64 34 36 37 36 36 7 4 10
24 19 22 24 28 28 23 21 14 15 12 15 12 24 24 26 23 25 24 25 24 25 22 23 26 34 34 28 23 31 28 32 38 42 52 45 50 38 39 37 37 22 6 4 9
22 23 21 22 25 26 25 22 22 16 10 12 5 18 28 27 22 16 32 23 27 26 27 25 25 28 35 35 33 38 35 33 33 42 48 53 51 47 42 41 36 21 10 7 11
22 21 21 21 24 23 22 19 21 21 15 10 10 1 16 5 24 11 29 34 30 27 19 18 24 28 35 37 38 42 44 39 38 39 42 42 42 44 40 41 43 29 12 9 11
24 21 18 16 17 21 23 21 19 19 16 12 6 12 11 9 10 16 21 27 31 29 23 11 26 25 33 35 38 41 41 39 39 38 42 44 46 39 40 38 38 19 13 14 14
21 17 16 16 18 21 21 20 19 18 12 5 10 15 12 9 6 17 18 24 33 30 7 20 21 25 28 23 17 31 36 37 35 32 35 43 39 33 29 26 20 21 14 16 17
Wind_Direction
322 320 318 316 313 311 309 307 304 303 300 298 296 294 292 287 284 281 265 274 275 262 272 273 273 269 264 266 264 264 263 263 267 270 272 289 290 289 312 317 322 325 332 336 332
329 326 322 319 316 314 311 309 306 304 301 299 297 295 292 290 283 270 273 273 269 270 264 258 262 261 260 262 264 258 260 262 268 272 274 283 275 289 300 303 307 321 320 314 341
336 334 330 325 321 316 313 310 308 307 305 301 298 296 295 295 283 272 279 273 268 264 263 265 256 260 259 262 260 263 260 264 268 276 278 277 281 283 288 283 298 305 311 312 303
339 337 335 332 329 326 322 315 311 307 304 304 302 299 296 292 274 272 285 286 278 267 259 257 259 256 258 256 259 266 265 265 268 273 277 278 282 281 283 283 288 297 291 300 308
336 333 330 328 326 325 322 320 317 313 308 304 302 302 300 283 272 275 278 282 284 273 250 251 252 255 256 261 263 261 266 268 270 272 275 280 278 276 278 284 280 290 292 295 300
337 335 333 330 328 326 325 322 317 314 311 307 305 302 292 278 289 281 275 276 274 272 256 251 259 256 265 262 260 270 269 267 270 272 275 276 275 279 280 288 285 285 290 296 301
332 330 328 326 325 323 320 319 318 317 312 309 306 302 287 281 291 285 281 272 268 268 265 257 256 261 262 264 265 266 265 268 265 271 274 282 273 273 278 286 288 287 285 288 293
335 332 331 331 330 328 325 321 317 318 316 313 310 302 286 293 289 280 274 269 266 265 263 264 264 261 259 268 267 264 264 262 262 268 272 279 264 279 285 288 285 284 283 284 280
337 331 330 328 330 331 328 325 322 325 326 321 312 303 293 299 292 285 278 265 264 263 264 262 262 258 260 259 261 260 258 261 264 266 272 268 249 270 279 284 285 286 283 282 283
336 333 343 351 349 344 343 346 346 353 350 334 314 303 297 282 289 296 291 275 259 260 259 256 256 253 253 250 252 258 260 264 266 270 269 271 260 271 276 281 283 282 275 288 257
340 349 351 354 352 353 355 358 350 342 337 317 300 288 284 278 282 277 288 284 266 259 252 252 249 246 245 251 259 265 262 267 275 273 270 269 273 275 279 282 285 282 285 283 253
338 345 349 355 358 359 7 359 357 347 334 334 312 295 286 269 268 265 274 271 265 258 253 249 247 252 256 258 257 259 262 264 272 276 275 275 274 272 272 278 282 288 291 243 295
344 350 357 357 1 10 5 4 1 4 5 358 325 323 315 279 259 260 263 266 261 258 257 252 256 255 254 256 256 257 259 264 269 274 269 277 277 277 276 278 279 283 261 291 295
350 354 0 358 14 8 8 5 5 13 7 5 357 354 329 312 276 260 263 258 258 254 258 259 258 255 258 252 255 256 262 266 268 269 268 273 271 274 274 270 271 276 250 282 276
353 357 1 7 12 10 9 6 4 15 353 325 306 351 266 310 293 284 290 247 251 253 251 250 260 255 253 255 256 257 261 264 264 267 269 267 278 262 281 269 236 247 278 269 237
354 357 1 14 15 15 10 8 15 6 352 352 318 320 320 312 291 288 296 290 266 262 251 255 259 259 257 259 260 264 261 259 262 265 262 264 269 251 258 233 241 271 277 268 238
340 359 5 17 15 16 13 17 17 16 11 332 314 318 309 315 303 310 305 274 262 258 250 258 256 257 259 257 259 256 256 253 255 252 255 259 263 226 279 269 263 264 278 226 223
328 2 20 22 21 18 20 21 25 18 18 301 311 316 313 323 304 305 305 299 285 273 260 257 254 252 260 257 255 251 247 246 249 255 257 258 259 223 238 243 254 256 252 231 289
4 17 27 30 34 29 23 23 34 24 19 289 299 322 320 323 316 318 296 293 291 290 265 262 258 267 267 266 262 252 246 250 257 257 263 256 257 252 249 248 254 260 282 236 304
20 25 30 44 35 28 26 25 32 20 349 292 308 316 314 315 315 316 309 309 293 294 290 274 264 270 271 271 259 252 253 244 247 248 252 256 256 257 262 256 267 281 281 295 300
32 32 36 40 30 29 26 28 21 30 14 40 315 347 318 311 302 312 304 302 308 289 291 283 267 267 276 264 256 253 245 247 250 251 247 253 253 257 245 258 266 282 303 259 149
33 33 39 34 23 29 24 21 23 40 45 38 42 324 316 303 312 316 313 299 294 289 287 290 275 267 269 267 262 255 250 249 245 244 250 252 243 257 250 263 274 279 296 142 142
30 40 39 31 28 25 26 26 43 35 39 41 39 353 324 309 329 295 296 305 315 305 297 294 280 273 273 267 263 248 246 251 252 247 245 249 247 250 254 262 260 288 261 171 132
35 31 35 42 33 27 25 33 29 35 48 33 52 15 327 313 335 347 283 310 294 276 265 280 283 276 264 262 265 252 247 254 249 243 244 246 250 243 249 253 259 287 243 186 151
37 33 36 26 29 27 25 35 29 33 40 54 61 136 267 27 266 324 294 280 280 277 307 308 285 277 271 268 261 253 247 249 247 246 244 245 247 243 252 256 253 277 230 202 168
32 30 32 23 30 27 32 35 26 25 33 54 50 266 255 241 238 256 251 252 268 267 292 342 279 278 271 270 259 251 245 247 247 247 245 244 243 245 259 265 256 259 197 183 170
35 38 34 32 31 29 34 25 26 20 48 45 258 264 254 251 273 268 253 238 240 255 173 200 219 273 268 290 267 246 244 245 245 242 241 239 241 244 258 264 262 248 199 184 164